カタログに戻る

SL-12 R/B

AUX MOTOR

運用中HEO
NORAD 20082·ROCKET BODY·🇷🇺 Russia

打ち上げ May 31, 1989 から Baikonur Cosmodrome

Loading…

次のパス (今後24時間)

TLE

最新Source: Space-Track

元期: Sep 14, 2026, 05:14 UTC

1 20082U 89039H   26257.21830570 -.00000076  00000-0 -11902-3 0  9990
2 20082  65.1177 333.4349 5553398  88.1440 331.2699  4.42434409587695

AllMySatでSL-12 R/Bをリアルタイム追跡

Download on the App Store